Change the Weather History Date:

Monday, November 26, 2012

  Actual Average (KMVE) Record (KMVE)
Temperature  
Mean Temperature 15 °F -  
Max Temperature 23 °F 34 °F 59 °F (1998)
Min Temperature 7 °F 17 °F -19 °F (1977)
Degree Days  
Heating Degree Days 50    
Moisture  
Dew Point 5 °F    
Average Humidity 67    
Maximum Humidity 79    
Minimum Humidity 49    
Precipitation  
Precipitation 0.00 in - - ()
Sea Level Pressure  
Sea Level Pressure 30.38 in    
Wind  
Wind Speed 7 mph (NW)    
Max Wind Speed 16 mph    
Max Gust Speed 22 mph    
Visibility 10 miles    
Events      
Averages and records for this station are not official NWS values.
T = Trace of Precipitation, MM = Missing Value Source: NWS Daily Summary

Daily Weather History Graph

Daily Weather History Graph

Search for Another Location

Airport or City:

Trip Planner

Search our weather history database for the weather conditions in past years. The results will help you decide how hot, cold, wet, or windy it might be!

Date:

Astronomy

Nov. 26, 2012 Rise Set
Actual Time 7:34 AM CST 4:45 PM CST
Civil Twilight 7:01 AM CST 5:17 PM CST
Nautical Twilight 6:25 AM CST 5:53 PM CST
Astronomical Twilight 5:50 AM CST 6:28 PM CST
Moon 3:40 PM CST (11/26) 5:42 AM CST (11/26)
Length of Visible Light 10h 16m
Length of Day
9h 10m
Waxing Gibbous, 97% of the Moon is Illuminated
Nov 26
Waxing Gibbous
Nov 28
Full
Dec 6
Last Quarter
Dec 13
New
Dec 19
First Quarter

Hourly Weather History & Observations

Time (CST) Temp. Windchill Dew Point Humidity Pressure Visibility Wind Dir Wind Speed Gust Speed Precip Events Conditions
12:11 AM 19.8 °F 6.5 °F 10.4 °F 67% 30.25 in 10.0 mi NW 13.8 mph 21.9 mph N/A   Overcast
12:31 AM 19.4 °F 7.9 °F 10.0 °F 67% 30.25 in 10.0 mi NW 10.4 mph 16.1 mph N/A   Overcast
12:51 AM 18.9 °F 5.9 °F 9.5 °F 67% 30.26 in 10.0 mi NNW 12.7 mph 18.4 mph N/A   Overcast
1:11 AM 18.0 °F 4.8 °F 9.0 °F 68% 30.28 in 10.0 mi NW 12.7 mph 19.6 mph N/A   Overcast
1:31 AM 17.6 °F 4.3 °F 8.6 °F 68% 30.28 in 10.0 mi NW 12.7 mph 19.6 mph N/A   Overcast
1:51 AM 16.7 °F 1.5 °F 7.2 °F 66% 30.28 in 10.0 mi NNW 16.1 mph 21.9 mph N/A   Overcast
2:11 AM 16.2 °F 4.7 °F 7.0 °F 67% 30.30 in 10.0 mi NW 9.2 mph - N/A   Overcast
2:31 AM 16.0 °F 1.1 °F 7.2 °F 68% 30.31 in 10.0 mi NW 15.0 mph - N/A   Overcast
2:51 AM 14.7 °F -1.1 °F 5.7 °F 68% 30.31 in 10.0 mi NW 16.1 mph 21.9 mph N/A   Mostly Cloudy
3:11 AM 13.1 °F -1.4 °F 4.8 °F 70% 30.32 in 10.0 mi NW 12.7 mph 19.6 mph N/A   Scattered Clouds
3:31 AM 12.2 °F -1.8 °F 4.8 °F 72% 30.32 in 10.0 mi NW 11.5 mph 18.4 mph N/A   Clear
3:51 AM 11.8 °F 0.3 °F 4.8 °F 73% 30.32 in 10.0 mi NW 8.1 mph - N/A   Clear
4:11 AM 10.9 °F -3.4 °F 4.5 °F 75% 30.33 in 10.0 mi NW 11.5 mph 18.4 mph N/A   Clear
4:31 AM 10.4 °F 4.0 °F 3.9 °F 75% 30.34 in 10.0 mi NW 3.5 mph - N/A   Clear
4:51 AM 10.0 °F -2.9 °F 3.6 °F 75% 30.35 in 10.0 mi NW 9.2 mph 18.4 mph N/A   Clear
5:11 AM 9.1 °F -5.6 °F 3.6 °F 78% 30.35 in 10.0 mi NW 11.5 mph - N/A   Clear
5:31 AM 9.1 °F -4.9 °F 3.2 °F 77% 30.36 in 10.0 mi NW 10.4 mph - N/A   Clear
5:51 AM 8.6 °F 0.1 °F 3.2 °F 79% 30.37 in 10.0 mi NW 4.6 mph - N/A   Clear
6:11 AM 8.6 °F -2.6 °F 3.2 °F 79% 30.38 in 10.0 mi WNW 6.9 mph - N/A   Clear
6:31 AM 8.2 °F - 3.0 °F 79% 30.38 in 10.0 mi Calm Calm - N/A   Clear
6:51 AM 7.9 °F -3.5 °F 2.5 °F 79% 30.39 in 10.0 mi NW 6.9 mph - N/A   Clear
7:11 AM 7.7 °F -5.8 °F 2.3 °F 79% 30.40 in 10.0 mi NW 9.2 mph - N/A   Clear
7:31 AM 7.7 °F - 1.9 °F 77% 30.41 in 10.0 mi Calm Calm - N/A   Clear
7:51 AM 7.5 °F 0.8 °F 2.1 °F 79% 30.43 in 10.0 mi WNW 3.5 mph - N/A   Clear
8:11 AM 7.7 °F - 2.3 °F 79% 30.43 in 7.0 mi Calm Calm - N/A   Clear
8:31 AM 8.8 °F - 2.5 °F 76% 30.43 in 7.0 mi Calm Calm - N/A   Clear
8:51 AM 9.9 °F - 2.7 °F 73% 30.44 in 10.0 mi Calm Calm - N/A   Clear
9:11 AM 10.6 °F -0.2 °F 3.0 °F 72% 30.45 in 10.0 mi WNW 6.9 mph - N/A   Clear
9:31 AM 11.3 °F - 3.0 °F 69% 30.46 in 10.0 mi Calm Calm - N/A   Clear
9:50 AM 12.7 °F -0.4 °F 3.9 °F 68% 30.47 in 7.0 mi NW 10.4 mph - N/A   Clear
10:11 AM 13.5 °F - 4.6 °F 68% 30.48 in 10.0 mi Calm Calm - N/A   Clear
10:31 AM 14.2 °F 8.4 °F 4.3 °F 65% 30.48 in 7.0 mi WNW 3.5 mph - N/A   Clear
10:51 AM 15.4 °F 3.0 °F 5.0 °F 63% 30.48 in 10.0 mi WNW 10.4 mph - N/A   Clear
11:11 AM 16.0 °F - 5.0 °F 62% 30.48 in 10.0 mi Calm Calm - N/A   Clear
11:31 AM 17.1 °F 8.7 °F 5.5 °F 61% 30.47 in 7.0 mi WNW 5.8 mph - N/A   Clear
11:51 AM 17.6 °F 9.3 °F 5.5 °F 59% 30.46 in 10.0 mi NW 5.8 mph - N/A   Clear
12:11 PM 18.9 °F 12.1 °F 6.3 °F 58% 30.46 in 10.0 mi NW 4.6 mph - N/A   Clear
12:31 PM 19.2 °F - 6.3 °F 57% 30.45 in 7.0 mi Calm Calm - N/A   Clear
12:51 PM 19.6 °F 14.5 °F 6.4 °F 57% 30.45 in 10.0 mi WNW 3.5 mph - N/A   Clear
1:11 PM 20.1 °F - 6.8 °F 56% 30.44 in 7.0 mi Calm Calm - N/A   Clear
1:31 PM 21.2 °F - 7.0 °F 54% 30.43 in 10.0 mi Calm Calm - N/A   Clear
1:51 PM 22.1 °F - 7.5 °F 54% 30.43 in 7.0 mi Calm Calm - N/A   Clear
2:11 PM 22.1 °F - 7.2 °F 53% 30.42 in 10.0 mi Calm Calm - N/A   Clear
2:31 PM 22.5 °F - 7.0 °F 52% 30.41 in 10.0 mi Calm Calm - N/A   Clear
2:51 PM 22.8 °F 16.7 °F 6.8 °F 50% 30.41 in 10.0 mi West 4.6 mph - N/A   Clear
3:11 PM 23.0 °F 12.4 °F 6.4 °F 49% 30.41 in 10.0 mi West 10.4 mph - N/A   Clear
3:31 PM 23.0 °F - 6.4 °F 49% 30.41 in 10.0 mi Calm Calm - N/A   Clear
3:50 PM 22.8 °F - 6.4 °F 50% 30.41 in 10.0 mi Calm Calm - N/A   Clear
4:11 PM 22.3 °F - 6.4 °F 51% 30.40 in 7.0 mi Calm Calm - N/A   Clear
4:50 PM 20.1 °F - 5.9 °F 54% 30.40 in 7.0 mi Calm Calm - N/A   Clear
5:11 PM 19.4 °F - 6.3 °F 57% 30.40 in 10.0 mi Calm Calm - N/A   Clear
5:31 PM 19.6 °F - 5.9 °F 55% 30.40 in 10.0 mi Calm Calm - N/A   Clear
5:51 PM 17.4 °F - 5.2 °F 59% 30.39 in 10.0 mi Calm Calm - N/A   Clear
6:11 PM 14.7 °F - 4.8 °F 65% 30.38 in 10.0 mi Calm Calm - N/A   Clear
6:30 PM 12.2 °F - 3.2 °F 67% 30.38 in 10.0 mi Calm Calm - N/A   Clear
6:51 PM 12.0 °F - 2.8 °F 67% 30.38 in 7.0 mi Calm Calm - N/A   Clear
7:11 PM 13.3 °F - 4.6 °F 68% 30.38 in 10.0 mi Calm Calm - N/A   Clear
7:30 PM 14.2 °F - 4.8 °F 66% 30.37 in 10.0 mi Calm Calm - N/A   Clear
7:51 PM 14.4 °F - 6.3 °F 70% 30.37 in 10.0 mi Calm Calm - N/A   Clear
8:11 PM 15.6 °F - 6.8 °F 68% 30.37 in 10.0 mi Calm Calm - N/A   Clear
8:31 PM 15.8 °F - 6.8 °F 68% 30.36 in 7.0 mi Calm Calm - N/A   Clear
8:51 PM 16.3 °F - 7.0 °F 67% 30.36 in 10.0 mi Calm Calm - N/A   Clear
9:30 PM 14.4 °F - 6.6 °F 71% 30.35 in 10.0 mi Calm Calm - N/A   Clear
9:51 PM 13.1 °F - 6.6 °F 75% 30.35 in 10.0 mi Calm Calm - N/A   Clear
10:10 PM 15.1 °F - 7.2 °F 71% 30.34 in 10.0 mi Calm Calm - N/A   Clear
10:31 PM 14.5 °F - 7.3 °F 73% 30.33 in 10.0 mi Calm Calm - N/A   Clear
10:50 PM 13.8 °F - 6.8 °F 74% 30.33 in 10.0 mi Calm Calm - N/A   Clear
11:11 PM 12.2 °F - 6.4 °F 78% 30.33 in 10.0 mi Calm Calm - N/A   Clear
11:31 PM 11.8 °F - 5.9 °F 77% 30.32 in 10.0 mi Calm Calm - N/A   Clear
11:51 PM 12.2 °F - 6.4 °F 78% 30.32 in 10.0 mi Calm Calm - N/A   Clear